Regional Weather Roundup
Issued by NWS

Home | Current Version | Previous Version | Graphics & Text | Print | Product List | Glossary On
Versions: 1 2 3 4 5 6 7 8 9 10 11 12 13 14 15 16 17 18 19 20 21 22 23 24 25 26 27 28 29 30 31 32 33 34 35 36 37 38 39 40 41 42 43 44 45 46 47 48 49 50
907
ASUS44 KLIX 242201
RWRLA
LOUISIANA WEATHER ROUNDUP
NATIONAL WEATHER SERVICE NEW ORLEANS LA
500 PM CDT THU APR 24 2014

NOTE: "FAIR" INDICATES FEW OR NO CLOUDS BELOW 12,000 FEET WITH NO
      SIGNIFICANT WEATHER AND/OR OBSTRUCTIONS TO VISIBILITY.
      SKY/WX - SKY CONDITION AND SIGNIFICANT WEATHER.
      TMP - AIR TEMPERATURE.    DP   - DEWPOINT TEMPERATURE.
      RH  - RELATIVE HUMIDITY.  PRES - PRESSURE.
      HX  - HEAT INDEX.         WCI  - WIND CHILL INDEX.

*  THESE STATIONS ARE NOT NWS OR FAA STATIONS AND ARE NOT UNDER
   NWS QUALITY CONTROL.

LAZ040-048-061>063-065-066-069-242300-
SOUTHEAST LOUISIANA

CITY           SKY/WX    TMP DP  RH WIND       PRES   REMARKS
N.O. AUDUBON     N/A     82  67  60 MISG        N/A
N.O. INTL ARPT PTSUNNY   80  65  59 S18       29.87F
N.O. LAKEFRONT SUNNY     81  65  58 S15       29.89F
N.O. DOWNTOWN* FAIR      81  63  54 S15       29.89F
SLIDELL        MOSUNNY   79  65  62 S14       29.88F
BATON ROUGE    MOSUNNY   83  63  50 S12       29.85F
BOOTHVILLE     MOSUNNY   74  66  76 S8        29.94F
BELLE CHASSE   PTSUNNY   77  65  66 S13       29.90F
BOGALUSA*        N/A     83  61  47 S12       29.88F
GALLIANO*      NOT AVBL
NEW ROADS*     NOT AVBL
GONZALES*      MOCLDY    81  65  59 S10       29.85F
HAMMOND*       NOT AVBL
HOUMA*         MOSUNNY   79  64  61 SE17      29.89F
PORT FOURCHON* MOCLDY    75  68  78 S10       29.94S

$$

LAZ041-044-053-054-242300-
SOUTHWEST LOUISIANA

CITY           SKY/WX    TMP DP  RH WIND       PRES   REMARKS
LAKE CHARLES   PTSUNNY   78  67  68 S10       29.88F
LAFAYETTE      PTSUNNY   78  65  63 S10G23    29.89R
PATTERSON      MOSUNNY   79  66  65 SE14      29.92S
SALT POINT       N/A     78  68  71 VRB6      29.89R
NEW IBERIA     PTSUNNY   78  65  63 S16       29.90R
CHENAULT AIRPK PTSUNNY   79  64  61 S13G18    29.89F

$$

LAZ027-028-242300-
CENTRAL LOUISIANA

CITY           SKY/WX    TMP DP  RH WIND       PRES   REMARKS
FORT POLK      CLOUDY    78  64  61 S12G24    29.84S
ALEXANDRIA INT MOSUNNY   82  64  54 S17G25    29.80F
ALEXANDRIA     MOSUNNY   82  65  56 S13G20    29.82F

$$

LAZ001-002-242300-
NORTHWEST LOUISIANA

CITY           SKY/WX    TMP DP  RH WIND       PRES   REMARKS
SHREVEPORT     PTSUNNY   79  65  62 SW13G18   29.78F
BARKSDALE AFB  CLOUDY    75  64  69 S8        29.79F
DTN SHREVEPORT CLOUDY    77  64  64 SW17G23   29.79F

$$

LAZ014-016-242300-
NORTHEAST LOUISIANA

CITY           SKY/WX    TMP DP  RH WIND       PRES   REMARKS
MONROE         CLOUDY    79  65  62 S13G26    29.76F
TALLULAH       MOSUNNY   82  63  52 S17G24    29.80F

$$




USA.gov is the U.S. government's official web portal to all federal, state and local government web resources and services.